QPF
0.04 0.04 0.03 0.03 0.04 0.04 0.05 0.04 0.03 0.03 0.02 0.02 0.02 0.01 0.01 0.02 0.02 0.03 0.03 0.02 0.03 0.04 0.05 0.07 0.11 0.12 0.14 0.16 0.19 0.21 0.20 0.20 0.19 0.14 0.13 0.12 0.11 0.11 0.12 0.13 0.12 0.11 0.10
0.05 0.05 0.04 0.03 0.03 0.04 0.04 0.04 0.02 0.02 0.02 0.02 0.01 0.02 0.02 0.02 0.02 0.02 0.03 0.02 0.03 0.04 0.05 0.05 0.09 0.13 0.14 0.14 0.17 0.16 0.18 0.18 0.19 0.16 0.12 0.11 0.11 0.12 0.11 0.12 0.12 0.11 0.12
0.04 0.04 0.04 0.04 0.04 0.03 0.03 0.03 0.02 0.02 0.01 0.01 0.01 0.02 0.03 0.03 0.02 0.02 0.02 0.02 0.02 0.03 0.04 0.05 0.08 0.11 0.13 0.15 0.14 0.13 0.14 0.14 0.16 0.15 0.13 0.12 0.12 0.12 0.12 0.12 0.11 0.10 0.11
0.03 0.03 0.03 0.04 0.04 0.03 0.02 0.02 0.02 0.02 0.02 0.01 0.02 0.01 0.02 0.02 0.02 0.02 0.01 0.01 0.02 0.03 0.04 0.04 0.06 0.08 0.10 0.14 0.16 0.14 0.14 0.15 0.15 0.14 0.13 0.13 0.14 0.14 0.14 0.13 0.12 0.11 0.10
0.04 0.04 0.03 0.04 0.04 0.03 0.02 0.02 0.02 0.03 0.03 0.02 0.02 0.02 0.02 0.02 0.02 0.02 0.01 0.01 0.01 0.02 0.02 0.02 0.03 0.05 0.06 0.10 0.13 0.16 0.16 0.15 0.14 0.13 0.13 0.15 0.18 0.19 0.20 0.17 0.15 0.14 0.12
0.06 0.06 0.04 0.04 0.03 0.03 0.03 0.02 0.02 0.03 0.03 0.03 0.02 0.02 0.04 0.04 0.04 0.02 0.01 0.01 0.02 0.01 0.01 0.02 0.03 0.04 0.05 0.07 0.11 0.15 0.18 0.18 0.14 0.14 0.14 0.14 0.16 0.18 0.21 0.19 0.17 0.14 0.13
0.06 0.05 0.04 0.03 0.02 0.02 0.02 0.03 0.03 0.02 0.03 0.03 0.03 0.02 0.02 0.03 0.04 0.04 0.03 0.03 0.02 0.01 0.01 0.02 0.03 0.03 0.04 0.06 0.07 0.11 0.17 0.22 0.21 0.17 0.15 0.16 0.17 0.16 0.14 0.14 0.16 0.15 0.11
0.06 0.05 0.03 0.03 0.03 0.02 0.03 0.03 0.03 0.03 0.03 0.03 0.03 0.02 0.02 0.02 0.02 0.03 0.03 0.03 0.03 0.02 0.02 0.02 0.03 0.04 0.05 0.07 0.06 0.07 0.10 0.15 0.18 0.19 0.15 0.14 0.13 0.12 0.12 0.11 0.12 0.13 0.13
0.04 0.03 0.02 0.03 0.03 0.03 0.03 0.03 0.03 0.04 0.04 0.03 0.04 0.04 0.03 0.03 0.02 0.02 0.02 0.03 0.03 0.04 0.03 0.03 0.02 0.03 0.04 0.06 0.06 0.06 0.06 0.08 0.11 0.13 0.14 0.14 0.13 0.11 0.10 0.11 0.11 0.12 0.12
0.04 0.03 0.02 0.02 0.02 0.03 0.04 0.05 0.06 0.07 0.07 0.05 0.05 0.05 0.04 0.04 0.04 0.03 0.03 0.03 0.04 0.04 0.04 0.04 0.04 0.03 0.04 0.05 0.06 0.06 0.05 0.05 0.07 0.09 0.11 0.11 0.12 0.11 0.11 0.11 0.12 0.12 0.11
0.03 0.02 0.02 0.01 0.02 0.03 0.05 0.07 0.11 0.11 0.08 0.04 0.04 0.04 0.04 0.04 0.05 0.05 0.05 0.05 0.07 0.08 0.08 0.07 0.06 0.05 0.04 0.05 0.06 0.06 0.04 0.03 0.04 0.06 0.07 0.08 0.10 0.11 0.12 0.14 0.13 0.11 0.10
0.03 0.02 0.02 0.01 0.01 0.02 0.02 0.02 0.02 0.03 0.03 0.03 0.04 0.05 0.04 0.04 0.05 0.06 0.06 0.06 0.07 0.10 0.12 0.11 0.08 0.06 0.05 0.05 0.05 0.03 0.03 0.02 0.03 0.04 0.05 0.07 0.09 0.11 0.11 0.13 0.15 0.12 0.10
0.03 0.02 0.01 0.01 0.01 0.01 0.01 0.01 0.01 0.01 0.02 0.02 0.03 0.05 0.06 0.05 0.05 0.07 0.06 0.06 0.07 0.08 0.11 0.12 0.11 0.09 0.08 0.06 0.06 0.04 0.02 0.02 0.04 0.04 0.05 0.06 0.07 0.10 0.11 0.13 0.13 0.13 0.12
0.02 0.01 0.01 0.01 0.01 0.01 0.01 0.01 0.01 0.01 0.01 0.02 0.02 0.03 0.05 0.05 0.05 0.06 0.08 0.08 0.07 0.07 0.09 0.10 0.09 0.09 0.08 0.07 0.07 0.05 0.03 0.02 0.04 0.04 0.04 0.05 0.06 0.07 0.09 0.10 0.11 0.12 0.13
0.02 0.01 0.01 0.01 0.01 0.01 0.01 0.01 0.01 0.01 0.01 0.01 0.02 0.03 0.03 0.04 0.05 0.06 0.06 0.07 0.08 0.08 0.09 0.10 0.09 0.08 0.09 0.08 0.09 0.06 0.05 0.04 0.06 0.05 0.05 0.05 0.06 0.07 0.07 0.08 0.09 0.11 0.13
0.03 0.02 0.01 0.01 0.01 0.01 0.01 0.01 0.01 0.01 0.01 0.02 0.02 0.02 0.03 0.02 0.03 0.05 0.05 0.05 0.07 0.08 0.08 0.08 0.09 0.09 0.11 0.10 0.11 0.07 0.07 0.06 0.07 0.08 0.07 0.07 0.08 0.09 0.08 0.08 0.07 0.08 0.10
0.03 0.02 0.02 0.01 0.01 0.01 0.01 0.02 0.02 0.02 0.02 0.02 0.02 0.02 0.04 0.02 0.03 0.05 0.05 0.04 0.05 0.07 0.08 0.08 0.09 0.10 0.10 0.10 0.11 0.09 0.07 0.05 0.06 0.06 0.06 0.07 0.08 0.09 0.09 0.07 0.06 0.05 0.05
0.04 0.03 0.02 0.02 0.02 0.02 0.01 0.01 0.02 0.02 0.02 0.02 0.02 0.03 0.04 0.03 0.04 0.05 0.06 0.05 0.04 0.05 0.07 0.08 0.09 0.09 0.08 0.09 0.09 0.10 0.07 0.05 0.04 0.04 0.04 0.04 0.05 0.06 0.07 0.06 0.06 0.05 0.03
0.05 0.04 0.04 0.03 0.03 0.02 0.02 0.01 0.01 0.02 0.02 0.02 0.03 0.02 0.03 0.03 0.03 0.04 0.05 0.05 0.04 0.04 0.06 0.07 0.07 0.08 0.07 0.08 0.08 0.08 0.08 0.06 0.04 0.04 0.03 0.03 0.04 0.06 0.05 0.05 0.05 0.05 0.04
0.04 0.03 0.02 0.02 0.02 0.02 0.01 0.01 0.01 0.02 0.03 0.02 0.03 0.02 0.02 0.02 0.02 0.02 0.04 0.05 0.05 0.05 0.06 0.07 0.07 0.08 0.08 0.09 0.09 0.07 0.07 0.06 0.04 0.03 0.03 0.03 0.04 0.06 0.07 0.05 0.04 0.04 0.04
0.03 0.03 0.02 0.02 0.02 0.02 0.01 0.01 0.01 0.02 0.05 0.03 0.02 0.02 0.03 0.03 0.02 0.02 0.02 0.04 0.05 0.06 0.07 0.09 0.08 0.07 0.08 0.10 0.09 0.07 0.05 0.05 0.04 0.03 0.03 0.03 0.03 0.04 0.05 0.04 0.04 0.04 0.04
0.03 0.03 0.03 0.02 0.02 0.01 0.01 0.01 0.01 0.01 0.04 0.05 0.03 0.03 0.03 0.03 0.02 0.02 0.01 0.02 0.03 0.04 0.05 0.07 0.08 0.07 0.07 0.07 0.07 0.06 0.05 0.04 0.04 0.03 0.03 0.03 0.02 0.03 0.03 0.03 0.03 0.03 0.03
0.05 0.05 0.04 0.03 0.02 0.02 0.01 0.01 0.01 0.01 0.04 0.06 0.04 0.03 0.03 0.03 0.03 0.03 0.02 0.02 0.02 0.02 0.03 0.05 0.07 0.07 0.07 0.07 0.07 0.06 0.05 0.05 0.05 0.04 0.03 0.03 0.03 0.02 0.02 0.02 0.02 0.02 0.02
0.06 0.05 0.05 0.04 0.03 0.02 0.01 0.01 0.02 0.02 0.03 0.06 0.06 0.04 0.04 0.04 0.03 0.03 0.03 0.03 0.03 0.02 0.02 0.03 0.06 0.08 0.06 0.06 0.06 0.05 0.05 0.04 0.04 0.04 0.03 0.03 0.03 0.02 0.02 0.02 0.01 0.01 0.01
0.06 0.06 0.05 0.04 0.04 0.03 0.02 0.02 0.02 0.03 0.03 0.06 0.07 0.05 0.03 0.03 0.02 0.01 0.01 0.02 0.02 0.02 0.01 0.01 0.02 0.03 0.06 0.04 0.05 0.05 0.04 0.04 0.04 0.03 0.03 0.03 0.03 0.03 0.03 0.02 0.01 0.01 0.01
0.05 0.05 0.05 0.05 0.05 0.03 0.03 0.03 0.04 0.04 0.03 0.05 0.06 0.04 0.03 0.02 0.01 0.00 0.01 0.02 0.02 0.02 0.02 0.01 0.02 0.02 0.04 0.04 0.03 0.03 0.04 0.04 0.05 0.04 0.03 0.03 0.04 0.03 0.03 0.03 0.03 0.02 0.01
MSLP
1014.56 1014.70 1014.74 1014.72 1014.67 1014.62 1014.60 1014.61 1014.63 1014.64 1014.62 1014.53 1014.38 1014.17 1013.95 1013.74 1013.61 1013.57 1013.63 1013.77 1013.95 1014.13 1014.26 1014.31 1014.28 1014.18 1014.05 1013.93 1013.87 1013.90 1014.03 1014.26 1014.56 1014.90 1015.24 1015.58 1015.90 1016.19 1016.46 1016.73 1017.00 1017.27 1017.55
1014.71 1014.84 1014.88 1014.86 1014.80 1014.73 1014.69 1014.68 1014.68 1014.67 1014.63 1014.53 1014.38 1014.17 1013.93 1013.72 1013.55 1013.47 1013.48 1013.56 1013.68 1013.80 1013.88 1013.90 1013.84 1013.73 1013.59 1013.46 1013.38 1013.39 1013.49 1013.67 1013.93 1014.22 1014.53 1014.85 1015.15 1015.45 1015.74 1016.04 1016.35 1016.67 1017.00
1014.92 1015.05 1015.10 1015.08 1015.02 1014.96 1014.90 1014.86 1014.83 1014.80 1014.73 1014.62 1014.45 1014.23 1013.99 1013.75 1013.56 1013.43 1013.38 1013.39 1013.44 1013.50 1013.53 1013.51 1013.43 1013.31 1013.17 1013.04 1012.96 1012.94 1013.00 1013.14 1013.33 1013.56 1013.81 1014.07 1014.34 1014.62 1014.92 1015.24 1015.60 1015.98 1016.37
1015.12 1015.26 1015.33 1015.34 1015.30 1015.24 1015.17 1015.11 1015.06 1014.99 1014.89 1014.75 1014.56 1014.33 1014.08 1013.83 1013.60 1013.44 1013.33 1013.28 1013.26 1013.25 1013.22 1013.16 1013.07 1012.94 1012.80 1012.67 1012.59 1012.55 1012.58 1012.66 1012.78 1012.93 1013.09 1013.28 1013.48 1013.72 1014.01 1014.35 1014.75 1015.18 1015.64
1015.28 1015.44 1015.54 1015.58 1015.57 1015.53 1015.47 1015.39 1015.30 1015.19 1015.06 1014.89 1014.68 1014.44 1014.18 1013.92 1013.68 1013.48 1013.32 1013.21 1013.13 1013.05 1012.97 1012.87 1012.75 1012.62 1012.48 1012.36 1012.27 1012.22 1012.21 1012.23 1012.27 1012.33 1012.40 1012.50 1012.62 1012.80 1013.05 1013.38 1013.80 1014.28 1014.80
1015.37 1015.54 1015.68 1015.76 1015.80 1015.78 1015.73 1015.65 1015.54 1015.40 1015.23 1015.03 1014.80 1014.55 1014.29 1014.03 1013.78 1013.56 1013.36 1013.20 1013.06 1012.92 1012.79 1012.64 1012.49 1012.34 1012.20 1012.08 1011.99 1011.93 1011.88 1011.85 1011.82 1011.80 1011.77 1011.76 1011.80 1011.89 1012.08 1012.37 1012.78 1013.28 1013.84
1015.37 1015.57 1015.74 1015.87 1015.95 1015.98 1015.95 1015.87 1015.75 1015.58 1015.39 1015.17 1014.93 1014.68 1014.42 1014.16 1013.91 1013.68 1013.46 1013.25 1013.05 1012.86 1012.67 1012.48 1012.29 1012.12 1011.97 1011.85 1011.75 1011.67 1011.60 1011.53 1011.45 1011.34 1011.23 1011.12 1011.05 1011.05 1011.15 1011.38 1011.73 1012.20 1012.76
1015.32 1015.53 1015.74 1015.91 1016.04 1016.11 1016.11 1016.04 1015.92 1015.75 1015.54 1015.32 1015.07 1014.82 1014.57 1014.32 1014.08 1013.83 1013.59 1013.35 1013.11 1012.86 1012.61 1012.37 1012.15 1011.95 1011.78 1011.65 1011.54 1011.46 1011.37 1011.28 1011.15 1010.99 1010.80 1010.61 1010.45 1010.34 1010.33 1010.45 1010.71 1011.10 1011.61
1015.24 1015.46 1015.69 1015.90 1016.07 1016.17 1016.21 1016.16 1016.05 1015.89 1015.68 1015.46 1015.22 1014.98 1014.75 1014.51 1014.27 1014.02 1013.76 1013.49 1013.20 1012.91 1012.61 1012.31 1012.04 1011.81 1011.62 1011.47 1011.36 1011.27 1011.18 1011.08 1010.93 1010.74 1010.51 1010.26 1010.00 1009.80 1009.67 1009.66 1009.80 1010.07 1010.48
1015.17 1015.39 1015.63 1015.86 1016.05 1016.19 1016.25 1016.23 1016.14 1015.99 1015.80 1015.59 1015.37 1015.14 1014.92 1014.70 1014.46 1014.21 1013.94 1013.63 1013.31 1012.96 1012.61 1012.27 1011.96 1011.69 1011.47 1011.30 1011.18 1011.09 1011.00 1010.91 1010.77 1010.58 1010.33 1010.04 1009.73 1009.44 1009.21 1009.07 1009.06 1009.19 1009.46
1015.14 1015.35 1015.58 1015.81 1016.01 1016.15 1016.23 1016.23 1016.16 1016.03 1015.86 1015.67 1015.46 1015.26 1015.05 1014.84 1014.61 1014.35 1014.06 1013.73 1013.38 1012.99 1012.60 1012.22 1011.86 1011.55 1011.30 1011.11 1010.98 1010.88 1010.81 1010.73 1010.61 1010.44 1010.21 1009.93 1009.60 1009.26 1008.95 1008.70 1008.55 1008.53 1008.65
1015.15 1015.34 1015.54 1015.75 1015.93 1016.07 1016.15 1016.15 1016.09 1015.98 1015.83 1015.66 1015.48 1015.29 1015.09 1014.88 1014.65 1014.39 1014.09 1013.74 1013.36 1012.95 1012.52 1012.11 1011.71 1011.37 1011.09 1010.87 1010.72 1010.62 1010.55 1010.49 1010.41 1010.28 1010.09 1009.85 1009.54 1009.20 1008.85 1008.53 1008.28 1008.14 1008.12
1015.20 1015.35 1015.52 1015.68 1015.83 1015.94 1015.99 1015.99 1015.93 1015.82 1015.68 1015.53 1015.36 1015.18 1014.99 1014.79 1014.56 1014.29 1013.97 1013.62 1013.22 1012.79 1012.35 1011.91 1011.49 1011.12 1010.81 1010.56 1010.39 1010.27 1010.19 1010.15 1010.09 1010.02 1009.89 1009.71 1009.47 1009.17 1008.84 1008.52 1008.23 1008.01 1007.89
1015.26 1015.37 1015.49 1015.60 1015.69 1015.75 1015.77 1015.74 1015.66 1015.55 1015.41 1015.25 1015.09 1014.92 1014.73 1014.53 1014.29 1014.01 1013.70 1013.33 1012.93 1012.50 1012.05 1011.61 1011.18 1010.79 1010.45 1010.17 1009.96 1009.81 1009.72 1009.67 1009.64 1009.60 1009.55 1009.45 1009.29 1009.09 1008.84 1008.56 1008.30 1008.07 1007.92
1015.31 1015.37 1015.44 1015.49 1015.52 1015.52 1015.48 1015.41 1015.30 1015.16 1015.01 1014.85 1014.68 1014.50 1014.31 1014.10 1013.86 1013.58 1013.26 1012.90 1012.50 1012.08 1011.65 1011.21 1010.79 1010.39 1010.03 1009.72 1009.46 1009.27 1009.14 1009.06 1009.03 1009.02 1009.01 1009.00 1008.95 1008.86 1008.73 1008.57 1008.39 1008.22 1008.10
1015.31 1015.34 1015.35 1015.35 1015.32 1015.25 1015.16 1015.03 1014.88 1014.71 1014.53 1014.34 1014.15 1013.96 1013.76 1013.53 1013.28 1013.00 1012.68 1012.33 1011.96 1011.56 1011.15 1010.74 1010.33 1009.94 1009.57 1009.23 1008.93 1008.68 1008.49 1008.37 1008.30 1008.28 1008.31 1008.35 1008.40 1008.44 1008.45 1008.43 1008.39 1008.34 1008.29
1015.24 1015.25 1015.23 1015.18 1015.09 1014.97 1014.82 1014.63 1014.42 1014.20 1013.98 1013.76 1013.55 1013.33 1013.10 1012.86 1012.60 1012.32 1012.01 1011.68 1011.33 1010.97 1010.60 1010.23 1009.85 1009.48 1009.11 1008.75 1008.42 1008.11 1007.85 1007.65 1007.52 1007.46 1007.47 1007.54 1007.65 1007.79 1007.94 1008.07 1008.19 1008.28 1008.37
1015.10 1015.10 1015.06 1014.97 1014.85 1014.68 1014.47 1014.22 1013.96 1013.68 1013.41 1013.15 1012.90 1012.65 1012.40 1012.14 1011.87 1011.58 1011.28 1010.97 1010.66 1010.34 1010.02 1009.70 1009.38 1009.04 1008.69 1008.33 1007.97 1007.61 1007.28 1006.99 1006.77 1006.64 1006.59 1006.64 1006.77 1006.96 1007.21 1007.47 1007.74 1007.99 1008.21
1014.89 1014.88 1014.83 1014.73 1014.58 1014.37 1014.11 1013.81 1013.49 1013.16 1012.83 1012.52 1012.22 1011.94 1011.66 1011.38 1011.10 1010.82 1010.53 1010.24 1009.97 1009.70 1009.44 1009.18 1008.91 1008.63 1008.32 1007.98 1007.60 1007.21 1006.81 1006.44 1006.12 1005.88 1005.75 1005.73 1005.82 1006.02 1006.31 1006.66 1007.04 1007.42 1007.78
1014.61 1014.60 1014.55 1014.44 1014.26 1014.01 1013.71 1013.36 1012.99 1012.61 1012.23 1011.87 1011.53 1011.21 1010.91 1010.61 1010.32 1010.04 1009.76 1009.50 1009.26 1009.04 1008.83 1008.64 1008.44 1008.23 1007.98 1007.67 1007.31 1006.91 1006.47 1006.02 1005.60 1005.25 1005.01 1004.88 1004.90 1005.05 1005.33 1005.70 1006.15 1006.63 1007.10
1014.26 1014.25 1014.19 1014.07 1013.87 1013.60 1013.26 1012.86 1012.44 1012.01 1011.58 1011.18 1010.80 1010.45 1010.13 1009.82 1009.53 1009.25 1008.98 1008.74 1008.52 1008.34 1008.19 1008.06 1007.94 1007.79 1007.61 1007.36 1007.04 1006.65 1006.19 1005.70 1005.21 1004.76 1004.40 1004.15 1004.06 1004.12 1004.34 1004.69 1005.16 1005.68 1006.23
1013.87 1013.84 1013.76 1013.61 1013.39 1013.08 1012.71 1012.28 1011.81 1011.34 1010.88 1010.44 1010.04 1009.67 1009.33 1009.01 1008.72 1008.44 1008.18 1007.95 1007.75 1007.60 1007.49 1007.40 1007.34 1007.26 1007.15 1006.97 1006.71 1006.36 1005.92 1005.42 1004.89 1004.37 1003.91 1003.55 1003.34 1003.30 1003.42 1003.72 1004.15 1004.69 1005.27
1013.43 1013.37 1013.25 1013.07 1012.81 1012.47 1012.06 1011.60 1011.10 1010.60 1010.11 1009.66 1009.24 1008.86 1008.52 1008.20 1007.90 1007.62 1007.36 1007.13 1006.94 1006.80 1006.70 1006.64 1006.61 1006.59 1006.54 1006.43 1006.24 1005.96 1005.57 1005.09 1004.56 1004.00 1003.49 1003.05 1002.74 1002.59 1002.63 1002.84 1003.22 1003.73 1004.32
1012.97 1012.85 1012.68 1012.45 1012.15 1011.77 1011.33 1010.84 1010.33 1009.82 1009.32 1008.86 1008.44 1008.06 1007.72 1007.41 1007.11 1006.82 1006.56 1006.31 1006.10 1005.94 1005.83 1005.77 1005.75 1005.75 1005.74 1005.70 1005.58 1005.37 1005.05 1004.63 1004.14 1003.60 1003.07 1002.60 1002.23 1002.01 1001.96 1002.10 1002.41 1002.88 1003.45
1012.49 1012.30 1012.06 1011.78 1011.43 1011.02 1010.56 1010.06 1009.55 1009.03 1008.55 1008.10 1007.69 1007.33 1006.99 1006.68 1006.37 1006.08 1005.79 1005.51 1005.27 1005.06 1004.91 1004.82 1004.77 1004.77 1004.78 1004.77 1004.70 1004.56 1004.33 1003.99 1003.57 1003.09 1002.59 1002.13 1001.75 1001.50 1001.40 1001.48 1001.74 1002.15 1002.69
1012.01 1011.74 1011.43 1011.09 1010.70 1010.27 1009.80 1009.30 1008.80 1008.31 1007.85 1007.42 1007.04 1006.69 1006.36 1006.05 1005.73 1005.42 1005.09 1004.77 1004.47 1004.20 1003.98 1003.83 1003.74 1003.70 1003.69 1003.69 1003.66 1003.58 1003.42 1003.18 1002.85 1002.45 1002.03 1001.62 1001.27 1001.02 1000.90 1000.95 1001.17 1001.54 1002.03
Thickness
5712 5711 5708 5705 5706 5703 5701 5698 5698 5696 5695 5695 5694 5694 5693 5692 5692 5692 5692 5691 5690 5690 5691 5692 5693 5694 5695 5695 5696 5695 5694 5694 5693 5692 5692 5691 5691 5691 5690 5691 5691 5691 5692
5707 5705 5704 5701 5700 5698 5695 5693 5692 5691 5690 5689 5688 5687 5686 5686 5685 5684 5685 5686 5685 5685 5686 5686 5688 5689 5690 5691 5692 5691 5691 5691 5691 5690 5689 5689 5688 5687 5687 5688 5688 5689 5689
5702 5700 5699 5697 5694 5691 5689 5687 5686 5686 5685 5684 5683 5682 5681 5680 5680 5678 5679 5679 5681 5681 5681 5681 5682 5683 5685 5686 5686 5687 5687 5687 5688 5688 5687 5686 5685 5685 5684 5685 5685 5685 5686
5696 5695 5693 5691 5687 5686 5684 5683 5682 5681 5679 5678 5677 5677 5676 5674 5673 5672 5673 5674 5674 5675 5676 5676 5676 5677 5679 5680 5681 5682 5682 5683 5683 5683 5683 5682 5682 5682 5682 5682 5682 5682 5682
5691 5689 5687 5684 5681 5680 5679 5677 5676 5674 5672 5670 5670 5670 5670 5670 5668 5668 5667 5667 5667 5667 5669 5670 5671 5672 5673 5675 5675 5677 5678 5678 5679 5679 5679 5679 5679 5678 5678 5678 5679 5679 5679
5686 5684 5682 5678 5676 5675 5672 5670 5667 5666 5664 5663 5664 5665 5665 5665 5664 5663 5661 5661 5660 5661 5663 5664 5666 5668 5668 5669 5670 5671 5673 5674 5674 5675 5675 5675 5675 5675 5675 5675 5675 5676 5676
5680 5678 5677 5672 5670 5669 5666 5664 5662 5660 5659 5657 5657 5658 5661 5661 5659 5656 5655 5654 5655 5654 5655 5656 5659 5661 5664 5665 5665 5667 5667 5669 5670 5670 5670 5670 5671 5671 5672 5671 5672 5672 5672
5675 5673 5669 5668 5665 5662 5660 5657 5654 5653 5653 5651 5648 5648 5650 5652 5651 5651 5648 5647 5647 5647 5648 5650 5651 5653 5656 5660 5661 5661 5662 5663 5664 5665 5665 5665 5666 5667 5667 5668 5668 5669 5669
5670 5667 5664 5662 5659 5658 5655 5652 5649 5646 5645 5644 5642 5639 5637 5639 5640 5643 5640 5639 5637 5638 5641 5643 5644 5647 5649 5652 5655 5655 5656 5657 5658 5659 5660 5660 5661 5662 5663 5664 5665 5666 5666
5665 5662 5659 5656 5654 5653 5649 5648 5646 5641 5638 5638 5636 5633 5630 5628 5626 5629 5632 5632 5631 5631 5633 5635 5638 5640 5642 5645 5647 5647 5648 5649 5651 5653 5655 5656 5656 5657 5659 5660 5660 5661 5662
5660 5657 5654 5651 5649 5647 5644 5641 5638 5635 5634 5632 5631 5628 5626 5624 5622 5619 5621 5622 5624 5625 5626 5628 5630 5633 5635 5638 5640 5642 5642 5642 5644 5646 5648 5650 5651 5652 5654 5655 5655 5656 5657
5656 5653 5649 5646 5644 5642 5639 5636 5633 5631 5628 5625 5624 5623 5621 5619 5617 5616 5615 5615 5616 5618 5618 5620 5623 5625 5628 5630 5633 5633 5634 5636 5637 5639 5641 5643 5645 5647 5648 5649 5650 5651 5652
5652 5647 5645 5642 5640 5636 5634 5632 5629 5626 5624 5620 5618 5617 5616 5614 5613 5611 5608 5609 5609 5612 5613 5614 5617 5618 5621 5624 5625 5625 5627 5629 5630 5632 5634 5636 5638 5640 5642 5644 5645 5646 5647
5648 5643 5640 5638 5635 5632 5630 5628 5626 5623 5620 5617 5615 5612 5610 5610 5608 5606 5603 5602 5603 5605 5607 5607 5610 5611 5613 5616 5617 5617 5620 5622 5623 5625 5627 5628 5630 5633 5635 5637 5639 5641 5642
5644 5640 5636 5633 5631 5629 5626 5624 5622 5618 5616 5614 5612 5609 5606 5606 5604 5602 5600 5598 5595 5597 5600 5601 5602 5605 5606 5608 5608 5611 5613 5614 5616 5617 5620 5621 5624 5626 5628 5630 5633 5634 5636
5639 5635 5633 5630 5628 5626 5623 5620 5618 5616 5612 5610 5607 5604 5601 5602 5600 5598 5596 5594 5593 5592 5594 5597 5597 5599 5599 5600 5602 5604 5606 5608 5609 5611 5612 5614 5617 5620 5622 5624 5626 5628 5629
5635 5632 5630 5627 5625 5623 5620 5616 5614 5612 5608 5606 5604 5602 5598 5597 5596 5594 5593 5592 5591 5590 5589 5592 5594 5594 5593 5593 5596 5598 5600 5602 5606 5606 5606 5608 5610 5613 5616 5618 5620 5622 5624
5632 5629 5626 5624 5622 5619 5616 5613 5610 5608 5605 5603 5600 5598 5596 5594 5592 5590 5589 5589 5588 5587 5586 5586 5588 5589 5589 5589 5591 5592 5596 5599 5601 5602 5602 5603 5604 5607 5609 5612 5614 5616 5618
5628 5626 5623 5620 5617 5615 5612 5609 5607 5605 5602 5600 5597 5594 5593 5591 5588 5588 5586 5586 5586 5586 5584 5583 5584 5585 5586 5587 5587 5589 5592 5594 5597 5598 5598 5599 5600 5602 5604 5607 5608 5611 5613
5625 5623 5620 5617 5614 5611 5609 5606 5604 5601 5599 5597 5594 5592 5591 5589 5586 5585 5584 5583 5582 5582 5582 5582 5582 5583 5583 5584 5584 5586 5588 5590 5592 5595 5596 5597 5596 5597 5599 5602 5604 5606 5607
5623 5620 5617 5614 5611 5608 5605 5602 5599 5597 5595 5594 5592 5591 5589 5586 5582 5580 5580 5580 5579 5579 5580 5580 5580 5581 5581 5581 5581 5583 5585 5586 5588 5591 5593 5595 5596 5596 5597 5597 5598 5600 5601
5620 5617 5614 5611 5607 5605 5599 5594 5590 5592 5592 5591 5590 5589 5587 5585 5581 5577 5575 5574 5573 5575 5576 5576 5577 5577 5577 5578 5578 5579 5581 5581 5583 5588 5589 5591 5594 5595 5597 5598 5597 5597 5596
5617 5614 5611 5608 5605 5601 5595 5591 5587 5587 5589 5589 5587 5586 5585 5585 5580 5579 5576 5573 5572 5570 5568 5570 5572 5573 5573 5574 5574 5575 5575 5577 5579 5583 5583 5586 5589 5591 5593 5595 5593 5592 5592
5614 5612 5609 5606 5602 5599 5592 5588 5585 5585 5587 5586 5585 5583 5581 5580 5578 5574 5574 5575 5574 5572 5570 5568 5569 5569 5570 5569 5569 5569 5571 5572 5575 5578 5579 5581 5585 5587 5591 5591 5589 5589 5588
5611 5609 5607 5604 5601 5597 5590 5586 5581 5585 5586 5585 5584 5582 5578 5576 5571 5568 5569 5570 5571 5570 5568 5566 5564 5564 5563 5563 5562 5564 5568 5571 5573 5576 5577 5578 5581 5584 5587 5588 5588 5586 5585
5609 5608 5606 5603 5600 5596 5589 5584 5579 5584 5583 5583 5582 5580 5575 5571 5567 5563 5565 5566 5566 5566 5566 5566 5563 5562 5562 5562 5559 5559 5564 5567 5570 5572 5575 5575 5577 5579 5582 5585 5586 5585 5583